Location: Zagreb
(45.8000°N, 16.0000°E)
Time: 01:16:28
(UTC+01:00)

NUDT-PHONESAT - Pass Details

Date: 04 November 2020
Orbit: 481 x 500 km, 97.4° (Epoch: 30 November)

Event Time Altitude Azimuth Distance (km) Brightness Sun altitude
Rises 18:18:00 0° 189° (S) 2,586 ? -17.8°
Reaches altitude 10° 18:20:15 10° 200° (SSW) 1,707 ? -18.2°
Maximum altitude 18:23:32 31° 264° (W) 913 ? -18.8°
Drops below altitude 10° 18:26:51 10° 327° (NNW) 1,717 ? -19.3°
Sets 18:29:07 0° 338° (NNW) 2,605 ? -19.7°
